Regional Weather Roundup
Issued by NWS Goodland, KS

Home | Current Version | Previous Version | Graphics & Text | Print | Product List | Glossary On
Versions: 1 2 3 4 5 6 7 8 9 10 11 12 13 14 15 16 17 18 19 20 21 22 23 24 25 26 27 28 29 30 31 32 33 34 35 36 37 38 39 40 41 42 43 44 45 46 47 48 49 50
000
ASUS43 KGLD 300759
RWRGLD

GOODLAND FORECAST AREA HOURLY WEATHER ROUNDUP
NATIONAL WEATHER SERVICE GOODLAND KS
200 AM MDT TUE MAY 30 2017

...OFFICIAL OBSERVATIONS...

CITY           SKY/WX    TMP DP  RH WIND       PRES   REMARKS
GOODLAND KS    CLEAR     51  47  86 SW9       30.16F
HILL CITY KS   CLEAR     58  52  80 W12       30.12R
IMPERIAL NEB   MOCLDY    56  46  69 W9        30.14F
MCCOOK NEB     CLEAR     51  46  83 SW8       30.10F
AKRON CO       CLEAR     49  42  77 W8        30.20F
BURLINGTON CO  CLEAR     49  46  90 SW9       30.19F
LIMON CO       CLEAR     39  39 100 N7        30.25F
$$

...UNOFFICIAL OBSERVATIONS...

CITY           SKY/WX    TMP DP  RH WIND       PRES   REMARKS
LENORA KS        N/A     51  32  48 MISG        N/A
NORTON KS      CLEAR     48  39  71 NW7       30.10S
SHARON SPRINGS   N/A     50  48  92 SW7         N/A
TRENTON NEB      N/A     51  32  48 CALM        N/A
KIT CARSON CO    N/A     44  41  90 CALM        N/A
YUMA CO        FAIR      45  36  70 W8        30.17F
$$



USA.gov is the U.S. government's official web portal to all federal, state and local government web resources and services.